Tracking 18843 objects as of 20-November-2017
HD Live streaming from Space Station
objects crossing your sky now

FENGYUN 1C DEB

Track FENGYUN 1C DEB now!
10-day predictions


NORAD ID: 30024
Int'l Code: 1999-025MZ
Perigee: 440.6 km
Apogee: 713.9 km
Inclination: 98.7 °
Period: 96.1 minutes
Semi major axis: 6948 km
RCS: 0.033 m2 (small)
Launch date: May 10, 1999
Source: People's Republic of China (PRC)
Launch site: Taiyaun Space Center, China (TSC)

Note: This is SATELLITE DEBRIS
aabbcc
Your satellite tracking list
Your tracking list is empty




NASA's NSSDC Master Catalog

Two Line Element Set (TLE):
1 30024U 99025MZ  17323.93328751 +.00001849 +00000-0 +10742-3 0  9997
2 30024 098.6995 328.0013 0196654 303.7308 054.5305 14.98963218585910
Source of the keplerian elements: AFSPC